TimePST,TemperatureF,Dew PointF,Humidity,Sea Level PressureIn,VisibilityMPH,Wind Direction,Wind SpeedMPH,Gust SpeedMPH,PrecipitationIn,Events,Conditions,WindDirDegrees,DateUTC
12:53 AM,37.0,34.0,89,30.15,10.0,West,4.6,-,N/A,,Scattered Clouds,280,2013-11-10 08:53:00
1:53 AM,39.9,36.0,86,30.15,10.0,West,4.6,-,N/A,,Overcast,280,2013-11-10 09:53:00
2:53 AM,41.0,36.0,82,30.15,10.0,West,4.6,-,N/A,,Overcast,260,2013-11-10 10:53:00
3:53 AM,41.0,36.0,82,30.15,10.0,West,5.8,-,N/A,,Overcast,270,2013-11-10 11:53:00
4:53 AM,41.0,37.0,86,30.16,10.0,West,6.9,-,N/A,,Overcast,260,2013-11-10 12:53:00
5:53 AM,39.9,35.1,83,30.15,10.0,West,4.6,-,N/A,,Mostly Cloudy,270,2013-11-10 13:53:00
6:53 AM,37.9,34.0,86,30.17,10.0,West,5.8,-,N/A,,Scattered Clouds,270,2013-11-10 14:53:00
7:53 AM,37.9,35.1,89,30.18,10.0,West,3.5,-,N/A,,Clear,260,2013-11-10 15:53:00
8:53 AM,43.0,37.9,82,30.19,10.0,WNW,3.5,-,N/A,,Scattered Clouds,290,2013-11-10 16:53:00
9:53 AM,46.0,37.9,73,30.19,10.0,West,4.6,-,N/A,,Partly Cloudy,270,2013-11-10 17:53:00
10:53 AM,48.9,37.9,66,30.19,10.0,Calm,Calm,-,N/A,,Clear,0,2013-11-10 18:53:00
11:53 AM,51.1,37.9,61,30.19,10.0,Calm,Calm,-,N/A,,Partly Cloudy,0,2013-11-10 19:53:00
12:53 PM,53.1,37.0,55,30.18,10.0,Variable,3.5,-,N/A,,Partly Cloudy,0,2013-11-10 20:53:00
1:53 PM,54.0,39.0,57,30.17,10.0,Variable,3.5,-,N/A,,Clear,0,2013-11-10 21:53:00
2:53 PM,53.1,37.9,57,30.17,10.0,SE,3.5,-,N/A,,Scattered Clouds,130,2013-11-10 22:53:00
3:53 PM,52.0,37.9,59,30.18,10.0,South,3.5,-,N/A,,Scattered Clouds,180,2013-11-10 23:53:00
4:53 PM,50.0,39.9,68,30.19,10.0,North,4.6,-,N/A,,Scattered Clouds,360,2013-11-11 00:53:00
5:53 PM,48.9,39.9,71,30.21,10.0,East,4.6,-,N/A,,Mostly Cloudy,90,2013-11-11 01:53:00
6:53 PM,48.9,39.0,69,30.23,10.0,NE,3.5,-,N/A,,Overcast,40,2013-11-11 02:53:00
7:53 PM,48.0,39.9,74,30.23,10.0,Calm,Calm,-,N/A,,Overcast,0,2013-11-11 03:53:00
8:53 PM,46.9,39.9,77,30.25,10.0,Calm,Calm,-,N/A,,Overcast,0,2013-11-11 04:53:00
9:53 PM,46.9,39.9,77,30.25,10.0,Calm,Calm,-,N/A,,Overcast,0,2013-11-11 05:53:00
10:23 PM,48.2,39.2,71,30.24,10.0,WSW,3.5,-,N/A,,Overcast,250,2013-11-11 06:23:00
10:53 PM,46.9,39.9,77,30.25,10.0,Calm,Calm,-,N/A,,Overcast,0,2013-11-11 06:53:00
11:53 PM,46.9,39.9,77,30.26,10.0,WSW,3.5,-,N/A,,Overcast,250,2013-11-11 07:53:00